Weather in Kuzma

Russia / Udmurt Republic     57°56′24″N   54°01′58″E
temp.,
°C
wind,
m/s
gust,
m/s
humid.,
%
clouds,
%
prec.,
mm/h
press.,
hPa
HPBL,
m
8 march, mon
mon801:00−16sse3798100 0.1 1004187
04:00−14sse4995100 0.2 1001335
07:00−13se41094100 0.6 999503
10:00−12se5991100 1.2 997512
13:00−9se5992100 0.5 994630
16:00−7ene4894100 1.9 993565
19:00−9nne3895100 0.7 995345
22:00−12wnw2296100 0.9 99766
9 march, tue
tue901:00−13nw1296100 0.1 99920
04:00−13nw1297100 0.3 100131
07:00−15nnw229793 0.1 100343
10:00−13n249287 0.1 1005316
13:00−10nnw228499 0.1 1008618
16:00−10n228899 0.3 1009462
19:00−14ne3796100 0.3 1011280
22:00−16ne489599 0.3 1013342
10 march, wed
wed1001:00−20ne499699 0.1 1014358
04:00−24nne4996100 0.1 1014274
07:00−28nne499458 0.0 1016251
10:00−25nne5118758 0.0 1016336
13:00−19nne5108145 0.0 1016569
16:00−18n598036 0.0 1015717
19:00−22nnw389221 0.0 1016193
22:00−24nnw269740 0.0 1017103
11 march, thu
thu1101:00−25wnw23989 0.0 101646
04:00−24wnw379818 0.0 1016152
07:00−23w3697100 0.1 1016178
10:00−18w3695100 0.3 1016259
13:00−13w4891100 0.1 1015467
16:00−10w4992100 0.4 1015585
19:00−8nw41187100 0.1 1016749
22:00−11nw41287100 0.1 1017651
12 march, fri
fri1201:00−15wnw3129063 0.0 1019367
04:00−17wnw3119544 0.0 1021274
07:00−18wnw499670 0.0 1023253
10:00−14wnw498645 0.0 1024340
13:00−9wnw59753 0.0 1024634
16:00−8w510792 0.0 1024776
19:00−12wsw312900 0.0 1025325
22:00−13wsw412910 0.0 1026329